CZ-4B DEB, 56090

Orbit data source: Space-Track

CZ-4B DEB, 56090 is space debris in SSO originally from a launch on Wed, 24 Oct 2018 UTC launched from the Taiyaun Space Center, China (TSC). Debris objects in space refer to the collection of defunct objects orbiting the Earth. Examples of debris include non-operational satellites, rocket bodies, and fragments generated from explosions, collisions, or faulty payload assembly.

Loading next visibility...
CZ-4B DEB details
Identifier
56090, 2018-081L
Orbit
SSO
Last TLE update2 months ago
Origin
Flag of CNCNSA (CN / PRC)
ManufacturerUnknown
MissionSpacecraft
Bus & MotorUnknown
MassUnknown
Launch date (UTC)
2018-10-24 (6 years ago)
Launch vehicleUnknown
Launch site
Taiyaun Space Center, China (TSC)
Object type
Payload
Rocket body
Debris
Shape & HBRUnknown
Radar Cross SectionSmall (<0.1 m²)

Expand to show TLE details & history

TLE from 2 months ago
0 CZ-4B DEB
1 56090U 18081L   24300.11855891  .00133796  00000-0  14258-1 0  9995
2 56090  99.4655 181.3627 0112638 129.4306 231.6938 14.83624948 84827
Epoch: 2024-10-26T02:50Z
Definitive object data (Epoch: 2024-10-26T02:50:43.489Z)
Latitude-0.00007°
Longitude103.70346°
Altitude670.279 km
Speed7.495 km/s
True Right ascension12h 05m 27s
True Declination0° 00' 00"
Sunlit
Object was in daylight at TLE epoch
Visualization TLE readout
Latitude2.20641°
Longitude-2.28486°
Altitude589.706 km
Speed7.547 km/s
Apparent Right ascension03h 07m 22s
Apparent Declination-21° 23' 10"
Sunlit
Object is in full shadow
Visualization observer readout
Local Sidereal Time12:16:21
Azimuth284.123° WNW
Elevation-49.322°
Doppler factor1
Orbital elements
Apogee altitude693.787 km
Perigee altitude536.248 km
Semi-major axis6,993.155 km
Eccentricity0.0112638
Inclination99.4655°
RAAN181.3627°
Arg. of periapsis129.4306°
True anomaly230.68976°
Mean anomaly231.6938°
Eccentric anomaly231.1909°
Mean motion3.71136 °/min
BSTAR0.014258
Orbital period97 mins
Loading maneuver chart data...
Loading historical data...
Loading historical data...
Loading historical data...
Loading historical data...
Loading historical data...
Loading historical data...
Loading historical data...

CZ-4B DEB Visibility forecast

Observer location: undefined°, undefined

Span
Click to sort rows by Start time (UTC) header in descending order
Start Az.
Max El. time (UTC)
Max El. Az.
Max El.
End time (UTC)
End Az.
7 mins2024-12-26 17:01:46.390Z162.886° S2024-12-26 17:04:46.390Z153.935° SSE43.621°2024-12-26 17:08:46.390Z346.308° N
7 mins2024-12-27 06:14:46.390Z9.702° NNE2024-12-27 06:17:46.390Z312.244° NW43.89°2024-12-27 06:21:46.390Z201.863° SSW
|